Hourly Data Report for April 20, 2003

SHERBROOKE A
QUEBEC

45°26'00.000" N
71°41'00.000" W
241.40 m
7028124
71610
YSC

Download Data

Hourly Data (April 2003)
Hourly Data Report for April 20, 2003
TIME
LST
Temp Definition
°C
Dew Point Definition
°C
Rel Hum Definition
%
Precip. Amount Definition
mm

Wind Dir Definition
10's deg

Wind Spd Definition
km/h
Visibility Definition
km
Stn Press Definition
kPa
Hmdx Definition


Wind Chill Definition


Weather Definition


00:00 8.2 4.7 79   9 7 15.0 99.76      
01:00 8.5 5.6 82   9 6 15.0 99.71      
02:00 8.5 5.6 82   5 4 15.0 99.67     Rain
03:00 8.1 5.4 83   8 6 15.0 99.61      
04:00 7.8 4.9 82   8 6 15.0 99.55     Rain
05:00 6.6 5.1 90     0 15.0 99.60      
06:00 7.9 5.5 85   1 4 15.0 99.62      
07:00 10.0 5.2 72     0 24.1 99.60     Cloudy
08:00 12.7 4.7 58   16 4 24.1 99.56     Cloudy
09:00 15.1 5.1 51   22 4 24.1 99.51     Mostly Cloudy
10:00 17.3 5.8 47   17 9 24.1 99.45     Mostly Cloudy
11:00 18.6 6.4 45   20 9 24.1 99.37     Mostly Cloudy
12:00 19.9 6.4 41   10 9 24.1 99.25     Mostly Cloudy
13:00 20.5 7.6 43   20 9 24.1 99.17     Cloudy
14:00 21.4 7.4 40   20 15 24.1 99.10     Cloudy
15:00 22.3 7.0 37   23 15 24.1 99.01     Mainly Clear
16:00 21.6 6.2 37   23 15 24.1 98.99     Mostly Cloudy
17:00 21.1 6.2 38   19 11 15.0 98.95      
18:00 19.5 5.7 40   18 13 15.0 98.88      
19:00 16.8 5.5 47   16 9 15.0 98.84      
20:00 15.3 4.5 48   14 9 15.0 98.81      
21:00 13.0 4.6 57   13 7 15.0 98.77      
22:00 10.0 3.5 64   8 4 15.0 98.72      
23:00 9.1 2.6 64   11 4 15.0 98.70      

Notes on Data Quality.

Legend

  • E = Estimated
  • M = Missing
  • NA = Not Available*
  • [empty] = Indicates an unobserved value
Date modified: